TimeEST,TemperatureF,Dew PointF,Humidity,Sea Level PressureIn,VisibilityMPH,Wind Direction,Wind SpeedMPH,Gust SpeedMPH,PrecipitationIn,Events,Conditions,WindDirDegrees,DateUTC
12:53 AM,39.0,34.0,82,30.15,10.0,Calm,Calm,-,N/A,,Clear,0,2013-02-07 05:53:00
1:53 AM,39.0,34.0,82,30.14,10.0,Calm,Calm,-,N/A,,Clear,0,2013-02-07 06:53:00
2:53 AM,37.0,34.0,89,30.14,10.0,Calm,Calm,-,N/A,,Clear,0,2013-02-07 07:53:00
3:53 AM,39.9,35.1,83,30.15,10.0,Calm,Calm,-,N/A,,Clear,0,2013-02-07 08:53:00
4:53 AM,39.9,36.0,86,30.17,10.0,Calm,Calm,-,N/A,,Mostly Cloudy,0,2013-02-07 09:53:00
5:53 AM,41.0,37.9,89,30.17,10.0,Calm,Calm,-,N/A,,Partly Cloudy,0,2013-02-07 10:53:00
6:53 AM,43.0,39.0,86,30.15,10.0,Calm,Calm,-,N/A,,Clear,0,2013-02-07 11:53:00
7:53 AM,46.9,43.0,86,30.14,7.0,Calm,Calm,-,N/A,,Clear,0,2013-02-07 12:53:00
8:53 AM,48.9,45.0,86,30.14,5.0,North,6.9,-,N/A,,Overcast,350,2013-02-07 13:53:00
9:53 AM,51.1,46.9,86,30.14,3.0,North,5.8,-,0.02,Rain,Light Rain,350,2013-02-07 14:53:00
10:05 AM,51.8,48.2,88,30.14,3.0,North,5.8,-,0.01,Rain,Rain,350,2013-02-07 15:05:00
10:15 AM,51.8,48.2,88,30.14,3.0,North,5.8,-,0.03,Rain,Rain,10,2013-02-07 15:15:00
10:53 AM,51.1,48.9,92,30.14,3.0,North,5.8,-,0.07,Rain,Light Rain,10,2013-02-07 15:53:00
11:02 AM,51.8,48.2,88,30.14,3.0,NNE,3.5,-,0.01,Rain,Rain,30,2013-02-07 16:02:00
11:53 AM,51.1,48.0,89,30.12,3.0,NE,6.9,-,0.08,Rain,Rain,40,2013-02-07 16:53:00
12:09 PM,51.8,48.2,88,30.11,2.5,NNE,5.8,-,0.03,Rain,Rain,30,2013-02-07 17:09:00
12:21 PM,50.0,48.2,94,30.12,2.5,North,5.8,-,0.04,Rain,Rain,10,2013-02-07 17:21:00
12:28 PM,50.0,48.2,94,30.11,2.5,North,4.6,-,0.05,Rain,Rain,350,2013-02-07 17:28:00
12:53 PM,50.0,48.0,93,30.09,1.2,NNE,8.1,-,0.12,Rain,Rain,30,2013-02-07 17:53:00
1:53 PM,50.0,48.0,93,30.04,1.5,NNE,8.1,-,0.29,Rain,Heavy Rain,20,2013-02-07 18:53:00
2:10 PM,50.0,48.2,94,30.03,1.2,NNE,10.4,-,0.12,Rain,Heavy Rain,30,2013-02-07 19:10:00
2:53 PM,50.0,48.0,93,30.02,1.5,North,10.4,-,0.34,Rain,Heavy Rain,360,2013-02-07 19:53:00
3:53 PM,50.0,48.0,93,29.99,1.5,NE,12.7,-,0.32,Rain,Heavy Rain,40,2013-02-07 20:53:00
4:28 PM,50.0,48.2,94,29.98,2.0,NNE,10.4,-,0.13,Rain,Rain,20,2013-02-07 21:28:00
4:53 PM,50.0,48.0,93,29.97,2.5,NNE,6.9,-,0.20,Rain,Rain,20,2013-02-07 21:53:00
4:56 PM,50.0,48.2,94,29.97,3.0,North,6.9,-,0.01,Rain,Rain,10,2013-02-07 21:56:00
5:06 PM,50.0,46.4,87,29.96,2.5,NE,10.4,-,0.04,Rain,Heavy Rain,40,2013-02-07 22:06:00
5:53 PM,48.9,46.9,93,29.92,2.5,NE,11.5,-,0.27,Rain,Rain,50,2013-02-07 22:53:00
6:53 PM,50.0,46.9,89,29.89,2.0,NE,9.2,-,0.31,Rain,Heavy Rain,50,2013-02-07 23:53:00
7:53 PM,48.9,46.9,93,29.89,2.5,NNE,15.0,-,0.50,Rain,Heavy Rain,20,2013-02-08 00:53:00
8:10 PM,48.2,46.4,93,29.91,1.0,NNW,18.4,-,0.14,Rain,Heavy Rain,340,2013-02-08 01:10:00
8:53 PM,48.0,46.0,93,29.92,2.0,North,10.4,-,0.43,Rain,Rain,10,2013-02-08 01:53:00
9:14 PM,48.2,44.6,87,29.90,2.0,NE,19.6,26.5,0.02,Rain,Light Rain,50,2013-02-08 02:14:00
9:24 PM,48.2,44.6,87,29.89,2.0,ENE,20.7,31.1,0.02,Rain,Rain,60,2013-02-08 02:24:00
9:53 PM,46.9,45.0,93,29.90,2.0,North,11.5,-,0.14,Rain,Light Rain,10,2013-02-08 02:53:00
10:00 PM,46.4,44.6,93,29.89,9.0,North,13.8,-,0.01,Rain,Light Rain,350,2013-02-08 03:00:00
10:12 PM,46.4,44.6,93,29.89,10.0,North,15.0,-,0.01,Rain,Light Rain,360,2013-02-08 03:12:00
10:53 PM,48.0,45.0,89,29.89,10.0,North,12.7,20.7,0.01,,Overcast,360,2013-02-08 03:53:00
11:53 PM,46.9,44.1,90,29.90,10.0,North,11.5,-,N/A,,Overcast,360,2013-02-08 04:53:00